Weather in Poltavskaya

Russia / Krasnodar Krai     45°22′00″N   38°12′41″E
В апреле 2022 года жителям России запретили посещать сайт meteo.paraplan.net по решению Генеральной прокуратуры. Аудитория сайта уменьшилась в 10 раз. Владельцы сайта не видят смысла в поддержке погодного сервера в таких условиях. Сайт будет закрыт в октябре.
temp.,
°C
wind,
m/s
gust,
m/s
humid.,
%
clouds,
%
prec.,
mm/h
press.,
hPa
HPBL,
m
25 september, sun
sun2500:00+11wsw410770 0.5 1019226
03:00+10wsw49802 0.6 1020171
06:00+10wsw49795 0.0 1021156
09:00+16wsw68482 0.0 10221113
12:00+20w67335 0.0 10212211
15:00+20wsw793619 0.0 10212335
18:00+17w36490 0.0 1021125
21:00+13ssw466819 0.0 1022103
26 september, mon
mon2600:00+12ssw357628 0.0 102180
03:00+12ssw34814 0.0 102047
06:00+11s33867 0.0 102028
09:00+17se336099 0.0 1020325
12:00+21s334276 0.0 10181262
15:00+23sse23366 0.0 10171630
18:00+20ese22475 0.0 101619
21:00+16wnw016111 0.0 101611
27 september, tue
tue2700:00+14se22635 0.0 101518
03:00+12s227345 0.0 101411
06:00+12sse2273100 0.0 101210
09:00+18se2339100 0.0 1012189
12:00+24sse3423100 0.0 1010723
15:00+27sse242386 0.0 10081215
18:00+22s2238100 0.0 100718
21:00+18se3344100 0.0 100731
28 september, wed
wed2800:00+17sse3350100 0.0 100534
03:00+17sse3346100 0.0 100432
06:00+17wsw113399 0.0 100411
09:00+20w2439100 0.0 1005122
12:00+24sw6845100 0.0 1006876
15:00+24wsw684888 0.0 10051041
18:00+22sw586432 0.0 1007274
21:00+18ssw410904 0.0 1008256
29 september, thu
thu2900:00+18ssw410905 0.0 1009295
03:00+17sw410905 0.1 1009259
06:00+16ssw34910 0.0 101056
09:00+20wnw23720 0.2 1011444
12:00+25wnw45431 0.0 10111551
15:00+25nw55395 0.0 10121632
18:00+21nw465699 0.0 1013140
21:00+17nnw336840 0.0 101547